When you browse on this site, cookies collect data to enhance your experience and personalize the content and advertising you see.
Visit our Privacy Policy to learn more. By continuing to use the site, you agree to this use of cookies and data.
  • Em Portugal
  • Lista de países
  • Para 7 dias
  • Temperatura da água
  • Mapas de satélite
  • Mapa do tempo
  • Widgets de tempo
  • user-avatar
    Iniciar Sessão

    Previsão horária em Bolshie Filipkovichi

    Hoje, 17 Junho, Segunda-feira

    Tempo Temperatura Precipitação Vento Pressão Humidade
    00:00 +19°C° 0 mm 2 m/s 748 mmHg 80%
    01:00 +19°C° 0 mm 2 m/s 748 mmHg 80%
    02:00 +20°C° 0 mm 1 m/s 748 mmHg 77%
    03:00 +19°C° 0 mm 1 m/s 748 mmHg 80%
    04:00 +18°C° 0 mm 2 m/s 748 mmHg 82%
    05:00 +18°C° 0 mm 2 m/s 748 mmHg 84%
    06:00 +20°C° 0 mm 2 m/s 748 mmHg 81%
    07:00 +21°C° 0 mm 2 m/s 748 mmHg 78%
    08:00 +24°C° 0 mm 3 m/s 749 mmHg 76%
    09:00 +25°C° 0 mm 3 m/s 748 mmHg 73%
    10:00 +26°C° 0 mm 2 m/s 748 mmHg 70%
    11:00 +27°C° 0 mm 2 m/s 748 mmHg 66%
    12:00 +28°C° 0.4 mm 3 m/s 748 mmHg 68%
    13:00 +28°C° 0.4 mm 3 m/s 748 mmHg 69%
    14:00 +28°C° 0.4 mm 4 m/s 748 mmHg 70%
    15:00 +27°C° 0.3 mm 4 m/s 748 mmHg 71%
    16:00 +27°C° 0.3 mm 4 m/s 748 mmHg 72%
    17:00 +26°C° 0.3 mm 5 m/s 748 mmHg 73%
    18:00 +25°C° 0 mm 5 m/s 748 mmHg 77%
    19:00 +22°C° 0 mm 4 m/s 748 mmHg 81%
    20:00 +20°C° 0 mm 4 m/s 748 mmHg 85%
    21:00 +19°C° 0 mm 4 m/s 748 mmHg 88%
    22:00 +18°C° 0 mm 3 m/s 749 mmHg 90%
    23:00 +16°C° 0 mm 3 m/s 749 mmHg 92%

    Amanhã, 18 Junho, Terça-feira

    Tempo Temperatura Precipitação Vento Pressão Humidade
    00:00 +16°C° 0 mm 3 m/s 749 mmHg 94%
    01:00 +16°C° 0 mm 3 m/s 749 mmHg 96%
    02:00 +16°C° 0 mm 3 m/s 749 mmHg 97%
    03:00 +16°C° 0 mm 3 m/s 749 mmHg 97%
    04:00 +16°C° 0 mm 3 m/s 749 mmHg 97%
    05:00 +16°C° 0 mm 3 m/s 749 mmHg 96%
    06:00 +17°C° 0 mm 3 m/s 749 mmHg 94%
    07:00 +17°C° 0 mm 3 m/s 750 mmHg 91%
    08:00 +18°C° 0 mm 4 m/s 750 mmHg 89%
    09:00 +19°C° 0 mm 3 m/s 750 mmHg 85%
    10:00 +21°C° 0 mm 3 m/s 750 mmHg 81%
    11:00 +22°C° 0 mm 3 m/s 750 mmHg 77%
    12:00 +23°C° 0.1 mm 4 m/s 750 mmHg 72%
    13:00 +25°C° 0.1 mm 4 m/s 750 mmHg 66%
    14:00 +26°C° 0.1 mm 4 m/s 750 mmHg 61%
    15:00 +26°C° 0.1 mm 4 m/s 750 mmHg 63%
    16:00 +26°C° 0.1 mm 4 m/s 750 mmHg 66%
    17:00 +26°C° 0.1 mm 4 m/s 750 mmHg 69%
    18:00 +24°C° 0.2 mm 3 m/s 750 mmHg 73%
    19:00 +21°C° 0.2 mm 3 m/s 750 mmHg 78%
    20:00 +20°C° 0.2 mm 3 m/s 750 mmHg 83%
    21:00 +19°C° 0 mm 3 m/s 750 mmHg 82%
    22:00 +18°C° 0 mm 3 m/s 750 mmHg 81%
    23:00 +16°C° 0 mm 3 m/s 751 mmHg 80%

    Depois de amanhã, 19 Junho, Quarta-feira

    Tempo Temperatura Precipitação Vento Pressão Humidade
    00:00 +16°C° 0 mm 2 m/s 751 mmHg 81%
    01:00 +15°C° 0 mm 2 m/s 751 mmHg 83%
    02:00 +15°C° 0 mm 2 m/s 751 mmHg 84%
    03:00 +15°C° 0 mm 2 m/s 751 mmHg 85%
    04:00 +15°C° 0 mm 2 m/s 751 mmHg 85%
    05:00 +15°C° 0 mm 2 m/s 751 mmHg 85%
    06:00 +17°C° 0 mm 2 m/s 751 mmHg 79%
    07:00 +19°C° 0 mm 2 m/s 751 mmHg 72%
    08:00 +21°C° 0 mm 2 m/s 751 mmHg 66%
    09:00 +23°C° 0 mm 2 m/s 751 mmHg 60%
    10:00 +24°C° 0 mm 2 m/s 751 mmHg 55%
    11:00 +26°C° 0 mm 2 m/s 751 mmHg 49%
    12:00 +26°C° 0 mm 2 m/s 751 mmHg 47%
    13:00 +27°C° 0 mm 2 m/s 751 mmHg 46%
    14:00 +27°C° 0 mm 2 m/s 750 mmHg 45%
    15:00 +27°C° 0 mm 2 m/s 750 mmHg 49%
    16:00 +27°C° 0 mm 2 m/s 750 mmHg 53%
    17:00 +26°C° 0 mm 2 m/s 750 mmHg 58%
    18:00 +25°C° 0 mm 2 m/s 750 mmHg 64%
    19:00 +23°C° 0 mm 2 m/s 749 mmHg 70%
    20:00 +20°C° 0 mm 2 m/s 749 mmHg 77%
    21:00 +19°C° 0 mm 2 m/s 750 mmHg 77%
    22:00 +18°C° 0 mm 2 m/s 750 mmHg 77%
    23:00 +17°C° 0 mm 2 m/s 750 mmHg 78%

    20 Junho, Quinta-feira

    Tempo Temperatura Precipitação Vento Pressão Humidade
    00:00 +17°C° 0 mm 2 m/s 750 mmHg 78%
    01:00 +16°C° 0 mm 2 m/s 750 mmHg 79%
    02:00 +16°C° 0 mm 2 m/s 750 mmHg 79%
    03:00 +16°C° 0 mm 2 m/s 750 mmHg 80%
    04:00 +16°C° 0 mm 2 m/s 750 mmHg 81%
    05:00 +16°C° 0 mm 3 m/s 750 mmHg 82%
    06:00 +18°C° 0 mm 3 m/s 750 mmHg 79%
    07:00 +20°C° 0 mm 3 m/s 750 mmHg 75%
    08:00 +22°C° 0 mm 3 m/s 750 mmHg 72%
    09:00 +24°C° 0 mm 3 m/s 750 mmHg 67%
    10:00 +25°C° 0 mm 4 m/s 750 mmHg 63%
    11:00 +27°C° 0 mm 4 m/s 750 mmHg 58%
    12:00 +27°C° 0 mm 4 m/s 749 mmHg 57%
    13:00 +28°C° 0 mm 4 m/s 749 mmHg 55%
    14:00 +28°C° 0 mm 4 m/s 749 mmHg 54%
    15:00 +28°C° 0 mm 4 m/s 749 mmHg 56%
    16:00 +28°C° 0 mm 3 m/s 748 mmHg 58%
    17:00 +28°C° 0 mm 3 m/s 748 mmHg 60%
    18:00 +26°C° 0 mm 3 m/s 748 mmHg 66%
    19:00 +25°C° 0 mm 3 m/s 748 mmHg 72%
    20:00 +22°C° 0 mm 3 m/s 748 mmHg 78%
    21:00 +22°C° 0 mm 3 m/s 748 mmHg 79%
    22:00 +21°C° 0 mm 3 m/s 749 mmHg 80%
    23:00 +21°C° 0 mm 3 m/s 749 mmHg 81%

    21 Junho, Sexta-feira

    Tempo Temperatura Precipitação Vento Pressão Humidade
    00:00 +20°C° 0 mm 3 m/s 749 mmHg 83%
    01:00 +20°C° 0 mm 3 m/s 749 mmHg 85%
    02:00 +19°C° 0 mm 3 m/s 749 mmHg 87%
    03:00 +19°C° 0 mm 3 m/s 749 mmHg 87%
    04:00 +19°C° 0 mm 3 m/s 749 mmHg 87%
    05:00 +19°C° 0 mm 3 m/s 749 mmHg 87%
    06:00 +21°C° 0 mm 3 m/s 749 mmHg 83%
    07:00 +22°C° 0 mm 4 m/s 750 mmHg 79%
    08:00 +25°C° 0 mm 4 m/s 750 mmHg 75%
    09:00 +26°C° 0 mm 4 m/s 750 mmHg 70%
    10:00 +27°C° 0 mm 4 m/s 750 mmHg 65%
    11:00 +28°C° 0 mm 5 m/s 750 mmHg 60%
    12:00 +28°C° 0 mm 5 m/s 749 mmHg 58%
    13:00 +28°C° 0 mm 5 m/s 749 mmHg 57%
    14:00 +29°C° 0 mm 5 m/s 749 mmHg 56%
    15:00 +29°C° 0 mm 4 m/s 749 mmHg 58%
    16:00 +29°C° 0 mm 4 m/s 748 mmHg 60%
    17:00 +29°C° 0 mm 3 m/s 748 mmHg 63%
    18:00 +27°C° 0 mm 3 m/s 748 mmHg 67%
    19:00 +25°C° 0 mm 3 m/s 748 mmHg 71%
    20:00 +24°C° 0 mm 3 m/s 748 mmHg 76%
    21:00 +22°C° 0 mm 3 m/s 748 mmHg 77%
    22:00 +21°C° 0 mm 3 m/s 748 mmHg 78%
    23:00 +21°C° 0 mm 3 m/s 749 mmHg 79%

    22 Junho, Sábado

    Tempo Temperatura Precipitação Vento Pressão Humidade
    00:00 +20°C° 0 mm 3 m/s 749 mmHg 81%
    01:00 +20°C° 0 mm 3 m/s 749 mmHg 82%
    02:00 +20°C° 0 mm 3 m/s 749 mmHg 84%
    03:00 +20°C° 0 mm 4 m/s 749 mmHg 85%
    04:00 +20°C° 0 mm 4 m/s 749 mmHg 85%
    05:00 +20°C° 0 mm 4 m/s 749 mmHg 85%
    06:00 +22°C° 0 mm 4 m/s 749 mmHg 81%
    07:00 +23°C° 0 mm 4 m/s 749 mmHg 77%
    08:00 +25°C° 0 mm 4 m/s 749 mmHg 73%
    09:00 +27°C° 0.1 mm 5 m/s 749 mmHg 70%
    10:00 +28°C° 0.1 mm 5 m/s 749 mmHg 66%
    11:00 +29°C° 0.1 mm 5 m/s 749 mmHg 63%
    12:00 +29°C° 0.7 mm 5 m/s 749 mmHg 63%
    13:00 +29°C° 0.7 mm 5 m/s 749 mmHg 64%
    14:00 +30°C° 0.7 mm 4 m/s 749 mmHg 64%
    15:00 +29°C° 0.6 mm 4 m/s 749 mmHg 65%
    16:00 +29°C° 0.6 mm 3 m/s 748 mmHg 66%
    17:00 +29°C° 0.6 mm 2 m/s 748 mmHg 67%
    18:00 +28°C° 0.1 mm 2 m/s 748 mmHg 70%
    19:00 +26°C° 0.1 mm 1 m/s 749 mmHg 74%
    20:00 +24°C° 0.1 mm 1 m/s 749 mmHg 77%
    21:00 +24°C° 0 mm 1 m/s 749 mmHg 79%
    22:00 +23°C° 0 mm 1 m/s 749 mmHg 81%
    23:00 +21°C° 0 mm 2 m/s 749 mmHg 83%
    Mostrar mais